{"data":{"norad_id":64765,"epoch":"2026-05-24T23:49:20.448192Z","epoch_age_seconds":78768,"freshness":"FRESH","line1":"1 64765U 25147L   26144.99259778  .00018042  00000+0  54379-3 0  9995","line2":"2 64765  53.1601 247.6476 0001069  66.9478 293.1637 15.34402148 50444","mean_motion":15.34402148,"eccentricity":0.0001069,"inclination_deg":53.1601,"raan_deg":247.6476,"arg_perigee_deg":66.9478,"mean_anomaly_deg":293.1637,"bstar":0.00054379,"rev_number":5044,"period_min":93.847626704443,"perigee_km":461.96557076669,"apogee_km":463.42814104508,"semimajor_km":6840.8338559059,"source":"CELESTRAK","updated_at":"2026-05-25T13:38:20.555237Z"}}